#timestamp,LO_Frequency,Hit,StdDev 
1552183215.7,286047000.9,N
1552183235.6,286047002.8,N
1552183255.4,286047001.5,N
1552183275.2,286047001.1,N
1552183295.1,286046997.1,N
1552183296.0,286046997.1,N
1552183315.8,286046998.0,N
1552183335.7,286046997.6,N
1552183355.5,286046999.5,N
1552183375.3,286046998.4,N
1552183395.2,286047000.9,N
1552183415.0,286047001.2,N
1552183415.9,286047001.2,N
1552183435.8,286046998.8,N
1552183455.6,286047000.3,N
1552183475.4,286047000.3,N
1552183495.3,286047002.4,N
1552183515.1,286047000.2,N
1552183535.8,286047000.4,N
1552183555.7,286047002.7,N
1552183575.5,286047000.3,N
1552183595.4,286046998.4,N
1552183615.2,286047000.0,N
1552183635.0,286047000.4,N
1552183635.9,286047000.4,N
1552183655.8,286046998.5,N
1552183675.6,286047000.8,N
1552183695.5,286046998.7,N
1552183715.3,286046998.3,N
1552183735.1,286046998.9,N
1552183755.9,286046999.1,N
1552183775.7,286046999.2,N
1552183795.5,286047002.7,N
1552183815.4,286047002.3,N
1552183835.2,286047000.6,N
1552183855.0,286047001.1,N
1552183856.0,286047001.1,N
1552183875.8,286047000.5,N
1552183895.6,286047001.5,N
1552183915.5,286046998.1,N
1552183935.3,286047000.6,N
1552183955.1,286046999.6,N
1552183975.9,286046995.4,Y
1552183995.7,286046997.6,P
1552184015.6,286047000.6,N
1552184035.4,286047000.9,N
1552184055.2,286047000.5,N
1552184075.1,286047001.2,N
1552184076.0,286047001.2,N
1552184095.8,286047002.4,N
1552184115.6,286047000.1,N
1552184135.5,286047000.9,N
1552184155.3,286046999.8,N
1552184175.1,286047001.0,N
1552184195.9,286047000.3,N
1552184215.7,286047002.4,N
1552184235.6,286046998.8,N
1552184255.4,286046996.5,N
1552184275.2,286046997.0,N
1552184295.1,286046998.7,N
1552184296.0,286046998.7,N
1552184315.8,286046998.9,N
1552184335.6,286047001.0,N
1552184355.5,286047000.6,N
1552184375.3,286047000.4,N
1552184395.2,286047000.7,N
1552184415.9,286047000.0,N
1552184435.7,286046999.9,N
1552184455.6,286046999.8,N
1552184475.4,286047000.5,N
1552184495.3,286047000.2,N
1552184515.1,286047000.3,N
1552184516.0,286047000.3,N
1552184535.8,286047000.7,N
1552184555.7,286046998.4,N
1552184575.5,286046998.3,N
1552184595.3,286046998.7,N
1552184615.2,286046999.0,N
1552184635.0,286046997.1,N
1552184635.9,286046997.1,N
1552184655.8,286046995.2,Y
1552184675.6,286046997.5,P
1552184695.4,286046998.6,N
1552184715.3,286046997.3,P
1552184735.1,286046997.9,N
1552184755.8,286046996.9,Y
1552184775.7,286046999.9,P
1552184795.5,286047004.0,P
1552184815.4,286047000.0,N
1552184835.2,286046999.8,N
1552184855.0,286047002.8,N
1552184855.9,286047002.8,N
1552184875.8,286047002.7,N
1552184895.6,286047000.2,N
1552184915.4,286047000.3,N
1552184935.3,286047002.3,N
1552184955.1,286047001.9,N
1552184975.9,286047003.9,N
1552184995.7,286047001.4,N
1552185015.5,286047004.1,N
1552185035.4,286047003.4,N
1552185055.2,286047004.2,N
1552185075.0,286047011.9,Y
1552185075.9,286047004.4,P
1552185095.8,286047001.5,N
1552185115.6,286047000.4,N
1552185135.5,286047002.4,N
1552185155.3,286047000.9,N
1552185175.1,286047000.8,N
1552185195.9,286046998.6,N
1552185215.7,286047001.0,N
1552185235.5,286046998.6,N
1552185255.4,286046999.3,N
1552185275.2,286046999.1,N
1552185295.1,286046997.4,N
1552185296.0,286046997.4,N
1552185315.8,286046998.0,N
1552185335.6,286046995.7,N
1552185355.5,286046998.0,N
1552185375.3,286046995.3,N
1552185395.1,286046995.2,N
1552185415.9,286046999.6,N
1552185435.7,286046997.3,N
1552185455.6,286046998.2,N
1552185475.4,286047000.5,N
1552185495.2,286047002.8,N
1552185515.1,286047003.5,N
1552185516.0,286047003.5,N
1552185535.8,286047003.8,N
1552185555.6,286046999.7,N
1552185575.5,286047000.9,N
1552185595.3,286047000.3,N
1552185615.2,286047000.2,N
1552185635.9,286047000.5,N
1552185655.7,286047000.3,N
1552185675.6,286046999.7,N
1552185695.4,286047003.8,N
1552185715.2,286047002.7,N
1552185735.1,286047004.2,N
1552185736.0,286047004.2,N
1552185755.8,286047002.0,N
1552185775.7,286047000.7,N
1552185795.5,286047000.1,N
1552185815.3,286047001.3,N
1552185835.2,286047003.9,N
1552185855.9,286047004.4,N
1552185875.7,286047004.3,N
1552185895.6,286047004.0,N
1552185915.4,286047002.0,N
1552185935.3,286047002.3,N
1552185955.1,286047000.2,N
1552185956.0,286047000.2,N
1552185975.8,286047000.2,N
1552185995.7,286047002.1,N
1552186015.5,286047001.8,N
1552186035.4,286047005.8,Y
1552186055.2,286047001.5,P
1552186075.0,286046999.8,N
1552186075.9,286046999.8,N
1552186095.8,286047005.5,Y
1552186115.6,286047001.9,P
1552186135.5,286047004.4,P
1552186155.3,286047002.4,N
1552186175.1,286046996.5,N
1552186195.9,286046999.2,N
1552186215.7,286046996.9,N
1552186235.5,286046995.3,N
1552186255.4,286046994.9,N
1552186275.2,286046998.0,N
1552186295.1,286046997.5,N
1552186296.0,286046997.5,N
1552186315.8,286047000.9,N
1552186335.6,286047000.4,N
1552186355.5,286047000.0,N
1552186375.3,286047000.3,N
1552186395.1,286047000.6,N
1552186415.9,286047002.5,N
1552186435.7,286047002.3,N
1552186455.6,286047002.1,N
1552186475.4,286047002.3,N
1552186525.3,286046998.9,E
1552186535.2,286046998.2,N
1552186555.0,286046998.7,P
1552186555.9,286046998.7,P
1552186575.8,286046998.2,Y
1552186595.6,286046999.9,P
1552186615.4,286047002.6,P
1552186635.3,286047002.5,N
1552186655.1,286047001.3,N
1552186675.9,286047000.2,N
1552186695.7,286047002.0,N
1552186715.5,286047001.6,N
1552186735.4,286047001.4,N
1552186755.2,286047002.5,N
1552186775.0,286047002.2,N
1552186775.9,286047002.2,N
1552186795.8,286047001.8,N
